Location: Alladorf
(49.9620°N, 11.3790°E)
Time: 20:00:42
(UTC+00:00)

Envisat - Pass Details

Date: 29 November 2020
Orbit: 764 x 766 km, 98.1° (Epoch: 25 January)

Event Time Altitude Azimuth Distance (km) Brightness Sun altitude
Rises 04:51:02 0° 18° (NNE) 3,247 6.3 -18.2°
Reaches altitude 10° 04:53:25 10° 23° (NNE) 2,316 5.6 -17.8°
Maximum altitude 04:58:23 50° 99° (E) 971 4.0 -17.0°
Drops below altitude 10° 05:03:19 10° 175° (S) 2,298 5.7 -16.3°
Sets 05:05:40 0° 181° (S) 3,220 6.4 -15.9°
